Location: Livorno
(43.5500°N, 10.3170°E)
Time: 19:02:51
(UTC+01:00)

Envisat - Pass Details

Date: 02 November 2020
Orbit: 764 x 766 km, 98.1° (Epoch: 05 December)

Event Time Altitude Azimuth Distance (km) Brightness Sun altitude
Rises 05:56:15 0° 18° (NNE) 3,242 6.3 -11.3°
Reaches altitude 10° 05:58:38 10° 23° (NNE) 2,311 5.7 -10.9°
Maximum altitude 06:03:36 51° 99° (E) 954 4.0 -10.0°
Drops below altitude 10° 06:08:31 10° 176° (S) 2,293 5.7 -9.1°
Sets 06:10:52 0° 181° (S) 3,214 6.4 -8.7°
